Location: Dąbrowa Miętka
(51.3714°N, 18.6370°E)
Time: 21:12:53
(UTC+01:00)

ISS - Pass Details

Date: 30 January 2019
Orbit: 403 x 411 km, 51.6° (Epoch: 22 February)

Event Time Altitude Azimuth Distance (km) Brightness Sun altitude
Rises 19:01:07 0° 274° (W) 2,338 1.5 -23.3°
Reaches altitude 10° 19:03:12 10° 275° (W) 1,478 0.1 -23.7°
Enters shadow 19:05:24 39° 278° (W) 634 -2.4 -24.0°
